Home   Weather   Stockholm   Past weeks

Flag for Sweden Past Weather in Stockholm, Sweden — Yesterday and Last 2 Weeks

Now
28 °F

Chilly.


Feels Like: 28 °F
Forecast: 31 / 46 °F
Wind: 1 mph from North

Location: Stockholm Bromma Airport

Current Time: Apr 27, 2017 at 5:26:20 am

Latest Report: Apr 27, 2017 at 4:50 am


Visibility: N/A

Pressure: 29.71 "Hg

Humidity: 100%

Dew Point: 28 °F

Location of StockholmLocation

Past Weather in Stockholm — Graph

°F

Stockholm Temperature Yesterday

Maximum temperature yesterday: 45 °F (at 3:20 pm)
Minimum temperature yesterday: 34 °F (at 12:20 am)
Average temperature yesterday: 38 °F

High & Low Weather Summary for the Past Weeks

 TemperatureHumidityPressure
High55 °F (Apr 21, 12:50 pm)100% (Apr 18, 2:20 am)30.51 "Hg (Apr 18, 2:20 am)
Low19 °F (Apr 15, 5:50 am)25% (Apr 19, 2:50 pm)29.27 "Hg (Apr 25, 12:50 am)
Average36 °F67%29.81 "Hg
* Reported Apr 12 3:20 am — Apr 27 3:50 am, Stockholm, Weather by CustomWeather, © 2017

Note: Actual official high and low records may vary slightly from our data, if they occured in-between our weather recording intervals... More about our weather records

Advertising

Stockholm Weather History for the Previous 24 Hours

Scroll right to see more
 ConditionsComfort  
Time TempWeatherWind HumidityBarometerVisibility
3:50 am
Thu, Apr 27
28 °FChilly.No wind100%29.74 "HgN/A
3:20 am28 °FChilly.2 mph100%29.74 "HgN/A
2:50 am30 °FChilly.No wind93%29.74 "HgN/A
2:20 am30 °FChilly.2 mph93%29.74 "HgN/A
1:50 am32 °FChilly.7 mph87%29.74 "HgN/A
1:20 am30 °FChilly.3 mph93%29.74 "HgN/A
10:20 pm
Wed, Apr 26
36 °FChilly.5 mph75%29.74 "HgN/A
9:50 pm36 °FClear.5 mph81%29.74 "Hg10 mi
9:20 pm36 °FClear.3 mph75%29.74 "Hg10 mi
8:50 pm39 °FPassing clouds.3 mph65%29.71 "HgN/A
8:20 pm41 °FPassing clouds.7 mph61%29.71 "HgN/A
7:50 pm41 °FPassing clouds.8 mph61%29.71 "HgN/A
7:20 pm43 °FPassing clouds.9 mph57%29.71 "HgN/A
6:50 pm43 °FPartly sunny.7 mph61%29.71 "HgN/A
6:20 pm43 °FSunny.8 mph61%29.71 "Hg10 mi
5:50 pm45 °FPassing clouds.10 mph57%29.71 "HgN/A
5:20 pm45 °FPassing clouds.12 mph57%29.68 "HgN/A
4:50 pm45 °FSunny.12 mph57%29.68 "Hg10 mi
4:20 pm45 °FSunny.10 mph61%29.68 "Hg10 mi
3:50 pm43 °FBroken clouds.12 mph66%29.68 "HgN/A
3:20 pm45 °FScattered clouds.9 mph57%29.68 "HgN/A
2:50 pm41 °FBroken clouds.14 mph66%29.68 "HgN/A
2:20 pm43 °FScattered clouds.8 mph61%29.65 "HgN/A
1:50 pm41 °FSprinkles. Scattered clouds.16 mph76%29.65 "HgN/A
1:20 pm41 °FScattered showers. Scattered clouds.15 mph70%29.65 "HgN/A
12:50 pm43 °FSprinkles. Scattered clouds.16 mph71%29.62 "HgN/A
12:20 pm39 °FSprinkles. Scattered clouds.12 mph75%29.62 "HgN/A
11:50 am39 °FSprinkles. Scattered clouds.20 mph75%29.62 "HgN/A
11:20 am39 °FScattered showers. Scattered clouds.16 mph75%29.59 "HgN/A
10:50 am37 °FBroken clouds.13 mph81%29.59 "HgN/A
10:20 am39 °FScattered showers. Broken clouds.13 mph70%29.56 "HgN/A
9:50 am37 °FScattered showers. Partly sunny.16 mph75%29.56 "HgN/A
9:20 am37 °FSprinkles. Broken clouds.13 mph81%29.56 "HgN/A
8:50 am36 °FPartly sunny.10 mph87%29.53 "HgN/A
8:20 am36 °FPartly sunny.13 mph87%29.53 "HgN/A
7:50 am36 °FPartly sunny.13 mph87%29.50 "HgN/A
7:20 am36 °FPartly sunny.13 mph81%29.50 "HgN/A
6:50 am36 °FBroken clouds.14 mph87%29.47 "HgN/A
6:20 am34 °FPartly sunny.14 mph93%29.47 "HgN/A
5:50 am34 °FPartly sunny.14 mph93%29.45 "HgN/A
5:20 am34 °FMostly cloudy.14 mph93%29.45 "HgN/A
Weather by CustomWeather, © 2017

See weather overviewHow to use our weather pages